Weather Roundup
Issued by NWS Springfield, MO

Home | Current Version | Previous Version | Text Only | Print | Product List | Glossary On
Versions: 1 2 3 4 5 6 7 8 9 10 11 12 13 14 15 16 17 18 19 20 21 22 23 24 25 26 27 28 29 30 31 32 33 34 35 36 37 38 39 40 41 42 43 44 45 46 47 48 49 50
741
NZUS99 KSGF 241307
HRRSGF

HOURLY WEATHER
NATIONAL WEATHER SERVICE SPRINGFIELD MO
800 AM CDT WED MAY 24 2017

......SGF CWA......

CITY           SKY/WX    TMP DP  RH WIND       PRES   REMARKS
SPRINGFIELD    CLOUDY    52  48  86 NW10      29.69S
JOPLIN         MOSUNNY   54  48  80 NW9G18    29.74S
WEST PLAINS    PTSUNNY   54  48  80 N7        29.66R
ROLLA          CLOUDY    51  49  92 NW8       29.63S
OSAGE BEACH    MOSUNNY   54  47  77 VRB7      29.67F
BRANSON        CLOUDY    54  48  82 NW9       29.70S

......SURROUNDING SGF CWA......

CITY           SKY/WX    TMP DP  RH WIND       PRES   REMARKS
CHANUTE        PTSUNNY   53  46  77 NW10      29.76S
PARSONS        SUNNY     53  47  79 N13       29.78R
COFFEYVILLE    SUNNY     54  49  83 NW14      29.77S
EMPORIA        PTSUNNY   51  47  86 NW10      29.78S
GROVE OK       SUNNY     55  50  82 NW7       29.76S
ROGERS AR      CLOUDY    51  48  89 NW9       29.74S
SILOAM SPRINGS CLOUDY    52  45  76 NW8       29.74S
HARRISON AR    CLOUDY    52  50  93 NW6       29.70R
NEAR YELLVILLE CLOUDY    55  46  71 NW8       29.65S

......KANSAS AND MISSOURI......

CITY           SKY/WX    TMP DP  RH WIND       PRES   REMARKS
KANSAS CTY INT CLOUDY    51  48  89 NW12      29.71S
DOWNTOWN KC    CLOUDY    52  49  89 NW8       29.71S
COLUMBIA       MOSUNNY   52  49  89 NW9       29.65S
SEDALIA        CLOUDY    51  50  96 NW9       29.68F
ST JOSEPH      CLOUDY    52  49  89 NW12      29.72S
ST LOUIS       PTSUNNY   59  51  75 W6        29.60S
SPIRIT OF STL  PTSUNNY   56  51  84 NW7       29.61S
KIRKSVILLE     CLOUDY    49  48  97 N8        29.65F FOG
WICHITA        MOSUNNY   51  44  77 NW14      29.83R
TOPEKA         CLOUDY    51  49  92 NW8       29.75S
OLATHE         CLOUDY    49  49 100 NW8       29.72S

......TENNESSEE......

CITY           SKY/WX    TMP DP  RH WIND       PRES   REMARKS
MEMPHIS        CLOUDY    60  57  89 NW5       29.57S
NASHVILLE      CLOUDY    62  60  93 E5        29.50F

......ARKANSAS.......

CITY           SKY/WX    TMP DP  RH WIND       PRES   REMARKS
FAYETTEVILLE   CLOUDY    50  49  96 NW8       29.74R
FT SMITH       CLOUDY    56  47  71 NW9       29.75R
LITTLE ROCK    MOSUNNY   59  54  83 NW9G22    29.66R

......OKLAHOMA.......

CITY           SKY/WX    TMP DP  RH WIND       PRES   REMARKS
TULSA          SUNNY     56  48  74 NW10      29.78S
PONCA CITY     SUNNY     52  44  74 N10       29.82S
MCALESTER      MOSUNNY   55  47  74 NW9       29.81R
OKLAHOMA CITY  SUNNY     54  44  69 N10       29.85S

......IOWA............

CITY           SKY/WX    TMP DP  RH WIND       PRES   REMARKS
DES MOINES     CLOUDY    54  51  90 N9        29.68R
QUAD CITIES    CLOUDY    54  50  86 NE5       29.62S FOG

......ILLINOIS........

CITY           SKY/WX    TMP DP  RH WIND       PRES   REMARKS
QUINCY         PTSUNNY   52  49  89 NW8       29.62S
CHICAGO        LGT RAIN  55  52  89 N12       29.58S




USA.gov is the U.S. government's official web portal to all federal, state and local government web resources and services.